Location: Omaha
(41.2590°N, 95.9380°W)
Time: 13:52:46
(UTC-05:00)

Hubble Space Telescope - Pass Details

Date: 07 October 2017
Orbit: 537 x 541 km, 28.5° (Epoch: 23 October)

Event Time Altitude Azimuth Distance (km) Brightness Sun altitude
Exits shadow 06:12:02 11° 209° (SSW) 1,734 3.0 -14.9°
Maximum altitude 06:13:34 13° 187° (S) 1,617 3.1 -14.6°
Drops below altitude 10° 06:15:25 10° 160° (SSE) 1,788 3.6 -14.3°
Sets 06:18:48 0° 131° (SE) 2,678 5.0 -13.6°
